Molengracht — PCJG — position and weather

sailwx.info

Track history (hours):
 
Tides and Currents Weather Stations Pressure Air Temp Water Temp Dewpoint Dewpoint Depression Visibility Wind Speed Wind Dir Waves Ship Positions

Molengracht

Last reported at 2014-Aug-01 05:26 UTC. Time now 2014-Aug-02 08:33 UTC.
Position N 22°16' E 119°52'.

Length 143 m; draft 6.5 m.

Type: Cargo ship. MMSI: 246770000.

Date/timePositionNaut miles runAvg speedWind from/ knotsBaromVisibWave heightAir tempDewpointWater temp
2014-Aug-01 05:26N 22°16' E 119°52'1011.6
2014-Aug-01 04:33N 22°26' E 119°51'1010.4
2014-Aug-01 03:33N 22°36' E 119°54'1211.5
2014-Aug-01 02:33N 22°48' E 119°54'  
2014-Jul-28 19:15N 37°25' E 123°07'6412.5
2014-Jul-28 14:11N 38°06' E 122°04'914.6
2014-Jul-28 13:33N 38°10' E 121°53'1312.4
2014-Jul-28 12:32N 38°16' E 121°40'7 7.5
2014-Jul-28 11:33N 38°18' E 121°30'1413.4
2014-Jul-28 10:32N 38°24' E 121°15'9 8.6
2014-Jul-28 09:29N 38°29' E 121°05'18 5.9
2014-Jul-28 06:23N 38°46' E 120°59'  
2014-Jul-23 15:31N 30°55' E 122°42'1312.7
2014-Jul-23 14:31N 30°51' E 122°28'1211.6
2014-Jul-23 13:31N 30°44' E 122°17'1111.7
2014-Jul-23 12:33N 30°34' E 122°12'9 9.2
2014-Jul-23 11:33N 30°31' E 122°02'11 9.6
2014-Jul-23 10:21N 30°24' E 121°51'2110.9
2014-Jul-23 08:28N 30°04' E 121°48'7 7.3
2014-Jul-23 07:33N 29°58' E 121°51'5 0.6
2014-Jul-22 23:33N 29°55' E 121°55'8 7.8
2014-Jul-22 22:33N 30°00' E 121°48'10 8.4
2014-Jul-22 21:21N 30°10' E 121°46'1 0.5
2014-Jul-22 19:08N 30°11' E 121°46'0 0.0
2014-Jul-22 18:32N 30°11' E 121°46'0 0.0
2014-Jul-22 17:26N 30°11' E 121°46'0 0.0
2014-Jul-22 16:32N 30°11' E 121°46'1 0.3
2014-Jul-22 14:30N 30°12' E 121°46'12 9.8
2014-Jul-22 13:16N 30°24' E 121°48'912.4
2014-Jul-22 12:32N 30°30' E 121°56'1313.2
2014-Jul-22 11:33N 30°33' E 122°11'1111.5
2014-Jul-22 10:33N 30°44' E 122°15'1212.5
2014-Jul-22 09:33N 30°53' E 122°25'12 9.6
2014-Jul-22 08:20N 31°04' E 122°28'  
Track history (hours):
 
Tides and Currents Weather Stations Pressure Air Temp Water Temp Dewpoint Dewpoint Depression Visibility Wind Speed Wind Dir Waves Ship Positions

Molengracht

Last reported at 2014-Aug-01 05:26 UTC. Time now 2014-Aug-02 08:33 UTC.
Position N 22°16' E 119°52'.

Length 143 m; draft 6.5 m.

Type: Cargo ship. MMSI: 246770000.

Date/timePositionNaut miles runAvg speedWind from/ knotsBaromVisibWave heightAir tempDewpointWater temp
2014-Aug-01 05:26N 22°16' E 119°52'1011.6
2014-Aug-01 04:33N 22°26' E 119°51'1010.4
2014-Aug-01 03:33N 22°36' E 119°54'1211.5
2014-Aug-01 02:33N 22°48' E 119°54'  
2014-Jul-28 19:15N 37°25' E 123°07'6412.5
2014-Jul-28 14:11N 38°06' E 122°04'914.6
2014-Jul-28 13:33N 38°10' E 121°53'1312.4
2014-Jul-28 12:32N 38°16' E 121°40'7 7.5
2014-Jul-28 11:33N 38°18' E 121°30'1413.4
2014-Jul-28 10:32N 38°24' E 121°15'9 8.6
2014-Jul-28 09:29N 38°29' E 121°05'18 5.9
2014-Jul-28 06:23N 38°46' E 120°59'  
2014-Jul-23 15:31N 30°55' E 122°42'1312.7
2014-Jul-23 14:31N 30°51' E 122°28'1211.6
2014-Jul-23 13:31N 30°44' E 122°17'1111.7
2014-Jul-23 12:33N 30°34' E 122°12'9 9.2
2014-Jul-23 11:33N 30°31' E 122°02'11 9.6
2014-Jul-23 10:21N 30°24' E 121°51'2110.9
2014-Jul-23 08:28N 30°04' E 121°48'7 7.3
2014-Jul-23 07:33N 29°58' E 121°51'5 0.6
2014-Jul-22 23:33N 29°55' E 121°55'8 7.8
2014-Jul-22 22:33N 30°00' E 121°48'10 8.4
2014-Jul-22 21:21N 30°10' E 121°46'1 0.5
2014-Jul-22 19:08N 30°11' E 121°46'0 0.0
2014-Jul-22 18:32N 30°11' E 121°46'0 0.0
2014-Jul-22 17:26N 30°11' E 121°46'0 0.0
2014-Jul-22 16:32N 30°11' E 121°46'1 0.3
2014-Jul-22 14:30N 30°12' E 121°46'12 9.8
2014-Jul-22 13:16N 30°24' E 121°48'912.4
2014-Jul-22 12:32N 30°30' E 121°56'1313.2
2014-Jul-22 11:33N 30°33' E 122°11'1111.5
2014-Jul-22 10:33N 30°44' E 122°15'1212.5
2014-Jul-22 09:33N 30°53' E 122°25'12 9.6
2014-Jul-22 08:20N 31°04' E 122°28'  

Dump ship's entire track history